TimeCST,TemperatureF,Dew PointF,Humidity,Sea Level PressureIn,VisibilityMPH,Wind Direction,Wind SpeedMPH,Gust SpeedMPH,PrecipitationIn,Events,Conditions,WindDirDegrees,DateUTC
6:00 AM,76,74,92,29.82,0,Calm,Calm,,,Fog,Heavy Fog,,2013-09-17 12:00:00
6:00 AM,75.2,73.4,94,29.81,0.1,Calm,Calm,-,N/A,Fog,Fog,0,2013-09-17 12:00:00
7:00 AM,77.0,75.2,94,29.83,1.6,Calm,Calm,-,N/A,,Scattered Clouds,0,2013-09-17 13:00:00
7:25 AM,77.0,75.2,94,29.85,5.0,Calm,Calm,-,N/A,Fog,Fog,0,2013-09-17 13:25:00
8:00 AM,78.8,75.2,89,29.86,6.2,Calm,Calm,-,N/A,,Scattered Clouds,0,2013-09-17 14:00:00
9:00 AM,82,78,83,29.87,12,Calm,Calm,,,,Overcast,,2013-09-17 15:00:00
9:00 AM,82.4,77.0,84,29.86,6.2,Calm,Calm,-,N/A,,Mostly Cloudy,0,2013-09-17 15:00:00
10:00 AM,86.0,77.0,74,29.85,6.2,Calm,Calm,-,N/A,,Mostly Cloudy,0,2013-09-17 16:00:00
11:00 AM,86.0,75.2,70,29.84,6.2,South,3.5,-,N/A,,Mostly Cloudy,170,2013-09-17 17:00:00
12:00 PM,88,76,60,29.82,12,SW,4.6,,,,Overcast,220,2013-09-17 18:00:00
12:00 PM,87.8,75.2,66,29.81,6.2,SW,4.6,-,N/A,,Mostly Cloudy,220,2013-09-17 18:00:00
1:00 PM,84.2,75.2,74,29.79,6.2,WNW,4.6,-,N/A,Rain-Thunderstorm,Light Thunderstorms and Rain,290,2013-09-17 19:00:00
1:15 PM,78.8,71.6,78,29.86,2.5,NNE,9.2,-,N/A,Rain,Heavy Rain,30,2013-09-17 19:15:00
2:00 PM,78.8,73.4,83,29.79,5.0,Calm,Calm,-,N/A,Rain,Rain,0,2013-09-17 20:00:00
3:00 PM,77,74,89,29.78,11,North,3.5,,,Rain,Light Rain,10,2013-09-17 21:00:00
3:00 PM,77.0,75.2,94,29.76,6.2,North,3.5,-,N/A,Rain,Light Rain,10,2013-09-17 21:00:00
4:00 PM,78.8,75.2,89,29.75,6.2,North,2.3,-,N/A,Rain,Light Rain,360,2013-09-17 22:00:00
5:00 PM,78.8,75.2,89,29.77,6.2,Calm,Calm,-,N/A,Rain,Light Rain,0,2013-09-17 23:00:00
6:00 PM,78,75,88,29.80,11,Calm,Calm,,,,Partly Cloudy,,2013-09-18 00:00:00
6:00 PM,78.8,75.2,89,29.79,6.2,Calm,Calm,-,N/A,,Overcast,0,2013-09-18 00:00:00
7:00 PM,78.8,75.2,89,29.81,6.2,Calm,Calm,-,N/A,,Overcast,0,2013-09-18 01:00:00
8:00 PM,77.0,75.2,94,29.83,6.2,Calm,Calm,-,N/A,,Mostly Cloudy,0,2013-09-18 02:00:00